Regional Weather Roundup
Issued by NWS

Home | Current Version | Previous Version | Text Only | Print | Product List | Glossary Off
Versions: 1 2 3 4 5 6 7 8 9 10 11 12 13 14 15 16 17 18 19 20 21 22 23 24 25 26 27 28 29 30 31 32 33 34 35 36 37 38 39 40 41 42 43 44 45 46 47 48 49 50

000
ASUS43 KBIS 201110
RWRND

NORTH DAKOTA REGIONAL WEATHER ROUNDUP
NATIONAL WEATHER SERVICE BISMARCK ND
600 AM CDT SUN AUG 20 2017

NOTE: "FAIR" INDICATES FEW OR NO CLOUDS BELOW 12,000 FEET WITH NO
SIGNIFICANT WEATHER AND/OR OBSTRUCTIONS TO VISIBILITY.


NDZ001>003-009>011-017-201200-
NORTHWEST NORTH DAKOTA

CITY           SKY/WX    TMP DP  RH WIND       PRES   REMARKS
WILLISTON      CLEAR     46  40  79 CALM      30.04R
MINOT          CLOUDY    56  40  55 W8        29.98R
MINOT AFB      CLEAR     49  41  73 W9        29.97R
$$

NDZ018>021-031>035-040>046-201200-
SOUTHWEST NORTH DAKOTA

CITY           SKY/WX    TMP DP  RH WIND       PRES   REMARKS
BISMARCK       CLOUDY    58  49  72 W5        30.03R
DICKINSON      MOCLDY    50  44  80 CALM      30.03S
GARRISON         N/A     49  44  83 NW8       30.01R
HETTINGER ARPT CLOUDY    58  42  55 NE3       30.05R
$$

NDZ004>008-012>016-024-026-027-054-201200-
NORTHEAST NORTH DAKOTA

CITY           SKY/WX    TMP DP  RH WIND       PRES   REMARKS
GRAND FORKS    PTCLDY    60  52  74 NW10      29.84R
GRND FRKS AFB  PTCLDY    59  49  68 NW12      29.87R
DEVILS LAKE    CLOUDY    54  48  80 NW8       29.94R
$$

NDZ022-023-025-028>030-036>039-047>053-201200-
SOUTHEAST NORTH DAKOTA

CITY           SKY/WX    TMP DP  RH WIND       PRES   REMARKS
FARGO          CLEAR     61  54  77 W9        29.88R
JAMESTOWN      CLEAR     57  50  77 NW10      29.94R
$$





USA.gov is the U.S. government's official web portal to all federal, state and local government web resources and services.